Flag for Vatican City State Weather past 2 weeks in Vatican City, Vatican City State

Now
37 °F

Clear.


Feels Like: 35 °F
Forecast: 26 / 50 °F
Wind: 3 mph from Northeast

Location: Rome / Ciampino

Current Time: Jan 28, 2015 at 9:52:17 PM

Latest Report: Jan 28, 2015 at 9:15 PM


Visibility: 10 mi

Pressure: 29.89 "Hg

Humidity: 70%

Dew point: 28 °F

Location of Vatican CityLocation

Historic Weather in Vatican City — Graph

°F

Vatican City temperature yesterday

Maximum temperature yesterday: 48 °F (at 2:45 PM)
Minimum temperature yesterday: 30 °F (at 6:45 AM)
Average temperature yesterday: 40 °F

Past Weeks' High & Low Weather Summary

 TemperatureHumidityPressure
High63 °F (Jan 17, 11:15 AM)100% (Jan 14, 7:15 PM)30.30 "Hg (Jan 14, 7:15 PM)
Low30 °F (Jan 27, 6:45 AM)38% (Jan 26, 3:45 PM)29.45 "Hg (Jan 23, 5:15 AM)
Average48 °F76%29.90 "Hg
* Reported Jan 13 8:15 PM — Jan 28 8:45 PM, Vatican City, Weather by CustomWeather, © 2014

Note: Actual official high and low records may vary slightly from our data, if they occured in-between our weather recording intervals... More about our weather records

Advertising

Vatican City weather history for previous 24 hours

 ConditionsComfort  
Time TempWeatherWind HumidityBarometerVisibility
8:45 PM
Jan 28
37 °FClear.3 mph70%29.89 "Hg10 mi
8:15 PM39 °FClear.6 mph65%29.89 "Hg10 mi
7:45 PM39 °FClear.5 mph61%29.89 "Hg10 mi
7:15 PM41 °FClear.7 mph57%29.89 "Hg10 mi
6:45 PM41 °FClear.9 mph57%29.89 "Hg10 mi
6:15 PM43 °FPassing clouds.12 mph53%29.86 "HgN/A
5:45 PM43 °FClear.14 mph53%29.86 "Hg10 mi
5:15 PM45 °FSunny.15 mph49%29.83 "Hg10 mi
4:45 PM46 °FPassing clouds.18 mph46%29.83 "HgN/A
4:15 PM46 °FPassing clouds.15 mph46%29.83 "HgN/A
3:45 PM48 °FPassing clouds.20 mph43%29.83 "HgN/A
3:15 PM48 °FPassing clouds.16 mph46%29.80 "HgN/A
2:45 PM48 °FPassing clouds.8 mph46%29.80 "HgN/A
2:15 PM48 °FPassing clouds.20 mph46%29.80 "HgN/A
1:45 PM48 °FPassing clouds.20 mph46%29.83 "HgN/A
1:15 PM48 °FSunny.18 mph46%29.83 "Hg10 mi
12:45 PM48 °FSunny.18 mph46%29.86 "Hg10 mi
12:15 PM48 °FPassing clouds.16 mph46%29.86 "HgN/A
11:45 AM45 °FPassing clouds.17 mph53%29.86 "HgN/A
11:15 AM45 °FPassing clouds.17 mph57%29.86 "HgN/A
10:45 AM45 °FPassing clouds.15 mph57%29.86 "HgN/A
10:15 AM43 °FPassing clouds.14 mph61%29.89 "HgN/A
9:45 AM41 °FPassing clouds.10 mph66%29.89 "HgN/A
9:15 AM39 °FPassing clouds.12 mph70%29.89 "HgN/A
8:45 AM39 °FScattered clouds.12 mph70%29.89 "HgN/A
8:15 AM37 °FScattered clouds.13 mph75%29.86 "HgN/A
7:45 AM37 °FScattered clouds.13 mph70%29.86 "HgN/A
7:15 AM37 °FPassing clouds.12 mph70%29.86 "HgN/A
6:45 AM37 °FPassing clouds.15 mph70%29.86 "HgN/A
6:15 AM37 °FPassing clouds.15 mph75%29.86 "HgN/A
5:45 AM37 °FClear.20 mph70%29.86 "Hg10 mi
5:15 AM37 °FPassing clouds.14 mph65%29.86 "HgN/A
4:45 AM37 °FPassing clouds.9 mph65%29.86 "HgN/A
4:15 AM39 °FPassing clouds.9 mph61%29.86 "HgN/A
3:45 AM37 °FPassing clouds.7 mph65%29.89 "HgN/A
3:15 AM39 °FPassing clouds.8 mph61%29.89 "HgN/A
2:45 AM39 °FPassing clouds.9 mph61%29.89 "HgN/A
2:15 AM37 °FClear.3 mph65%29.89 "Hg10 mi
1:45 AM39 °FPassing clouds.3 mph61%29.89 "HgN/A
1:15 AM41 °FPassing clouds.5 mph57%29.89 "HgN/A
12:15 AM41 °FPassing clouds.3 mph66%29.89 "HgN/A
11:45 PM
Jan 27
41 °FPassing clouds.5 mph66%29.89 "HgN/A
11:15 PM41 °FPassing clouds.1 mph70%29.89 "HgN/A
10:45 PM41 °FPassing clouds.3 mph70%29.89 "HgN/A
10:15 PM41 °FPassing clouds.2 mph66%29.86 "HgN/A
9:45 PM41 °FPassing clouds.5 mph70%29.86 "HgN/A
9:15 PM43 °FPassing clouds.2 mph66%29.86 "HgN/A
Weather by CustomWeather, © 2014

See weather overviewHow to use our weather pages